Weather History for KRDU - May, 2013

Change the Weather History Date:

Saturday, May 18, 2013

  Actual Average Record
Temperature  
Mean Temperature 70 °F 68 °F  
Max Temperature 78 °F 80 °F 95 °F (1906)
Min Temperature 62 °F 57 °F 35 °F (1973)
Degree Days  
Heating Degree Days 0 1  
Month to date heating degree days 68 42  
Since 1 July heating degree days 3304 3231  
Cooling Degree Days 5 5  
Month to date cooling degree days 43 66  
Year to date cooling degree days 93 127  
Growing Degree Days 20 (Base 50)    
Moisture  
Dew Point 64 °F    
Average Humidity 81    
Maximum Humidity 93    
Minimum Humidity 69    
Precipitation  
Precipitation 0.42 in 0.11 in 3.24 in (1894)
Month to date precipitation 2.32 1.77  
Year to date precipitation 16.83 15.53  
Snow  
Snow 0.00 in - - ()
Month to date snowfall 0.0  
Snow Depth 0.00 in    
Sea Level Pressure  
Sea Level Pressure 30.12 in    
Wind  
Wind Speed 2 mph (NE)    
Max Wind Speed 17 mph    
Max Gust Speed 28 mph    
Visibility 8 miles    
Events Rain , Thunderstorm    
T = Trace of Precipitation, MM = Missing Value Source: NWS Daily Summary

Daily Weather History Graph

Daily Weather History Graph

Search for Another Location

Airport or City:

Trip Planner

Search our weather history database for the weather conditions in past years. The results will help you decide how hot, cold, wet, or windy it might be!

Date:

Astronomy

May. 18, 2013 Rise Set
Actual Time 6:07 AM EDT 8:16 PM EDT
Civil Twilight 5:38 AM EDT 8:45 PM EDT
Nautical Twilight 5:03 AM EDT 9:20 PM EDT
Astronomical Twilight 4:25 AM EDT 9:58 PM EDT
Moon 1:30 PM EDT (5/18) 1:45 AM EDT (5/18)
Length of Visible Light 15h 06m
Length of Day
14h 09m
First Quarter, 55% of the Moon is Illuminated
May 18
First Quarter
May 25
Full
May 31
Last Quarter
Jun 8
New
Jun 16
First Quarter

Hourly Weather History & Observations

Time (EDT) Temp. Dew Point Humidity Pressure Visibility Wind Dir Wind Speed Gust Speed Precip Events Conditions
12:51 AM 71.1 °F 63.0 °F 75% 30.08 in 10.0 mi SE 3.5 mph - N/A   Mostly Cloudy
1:51 AM 68.0 °F 62.1 °F 81% 30.08 in 10.0 mi Calm Calm - N/A   Mostly Cloudy
2:51 AM 68.0 °F 62.1 °F 81% 30.08 in 10.0 mi Calm Calm - N/A   Mostly Cloudy
3:51 AM 66.0 °F 62.1 °F 87% 30.08 in 10.0 mi Calm Calm - N/A   Mostly Cloudy
4:51 AM 63.0 °F 61.0 °F 93% 30.09 in 7.0 mi Calm Calm - N/A   Scattered Clouds
5:51 AM 63.0 °F 61.0 °F 93% 30.10 in 8.0 mi Calm Calm - N/A   Scattered Clouds
6:51 AM 64.0 °F 62.1 °F 93% 30.12 in 7.0 mi Calm Calm - N/A   Mostly Cloudy
7:51 AM 66.0 °F 62.1 °F 87% 30.13 in 7.0 mi East 4.6 mph - N/A   Mostly Cloudy
8:51 AM 69.1 °F 64.0 °F 84% 30.14 in 8.0 mi Variable 4.6 mph - N/A   Mostly Cloudy
9:51 AM 72.0 °F 64.0 °F 76% 30.14 in 8.0 mi Calm Calm - N/A   Mostly Cloudy
10:51 AM 75.9 °F 64.9 °F 69% 30.14 in 9.0 mi Calm Calm - N/A   Mostly Cloudy
11:51 AM 75.0 °F 64.9 °F 71% 30.14 in 10.0 mi Calm Calm - N/A   Overcast
12:51 PM 69.1 °F 66.0 °F 90% 30.14 in 6.0 mi West 3.5 mph - 0.11 in Rain Light Rain
1:51 PM 72.0 °F 68.0 °F 87% 30.14 in 7.0 mi WNW 3.5 mph - 0.03 in   Overcast
2:51 PM 75.9 °F 66.0 °F 71% 30.12 in 10.0 mi NE 4.6 mph - N/A   Overcast
3:51 PM 75.9 °F 64.9 °F 69% 30.11 in 10.0 mi North 3.5 mph - N/A   Overcast
4:51 PM 75.0 °F 66.9 °F 76% 30.10 in 9.0 mi North 4.6 mph - N/A   Overcast
5:51 PM 73.9 °F 68.0 °F 82% 30.10 in 9.0 mi Calm Calm - N/A   Overcast
6:51 PM 73.0 °F 68.0 °F 84% 30.10 in 8.0 mi ENE 6.9 mph - N/A   Overcast
7:51 PM 72.0 °F 66.0 °F 81% 30.12 in 9.0 mi ENE 8.1 mph - N/A   Overcast
8:51 PM 70.0 °F 66.0 °F 87% 30.11 in 10.0 mi ENE 5.8 mph - N/A   Overcast
9:39 PM 69.8 °F 64.4 °F 83% 30.16 in 9.0 mi West 16.1 mph 27.6 mph N/A Thunderstorm Thunderstorm
9:51 PM 64.0 °F 61.0 °F 90% 30.16 in 10.0 mi Variable 4.6 mph 17.3 mph 0.00 in Rain , Thunderstorm Light Thunderstorms and Rain
10:08 PM 64.4 °F 62.6 °F 94% 30.17 in 2.5 mi ESE 8.1 mph - 0.09 in Rain , Thunderstorm Heavy Thunderstorms and Rain
10:17 PM 64.4 °F 62.6 °F 94% 30.16 in 5.0 mi ENE 5.8 mph - 0.19 in Rain Rain
10:51 PM 64.9 °F 63.0 °F 93% 30.15 in 7.0 mi ENE 4.6 mph - 0.22 in Rain Light Rain
11:51 PM 64.9 °F 63.0 °F 93% 30.14 in 7.0 mi Calm Calm - 0.04 in Rain Light Rain